TimeMDT,TemperatureF,Dew PointF,Humidity,Sea Level PressureIn,VisibilityMPH,Wind Direction,Wind SpeedMPH,Gust SpeedMPH,PrecipitationIn,Events,Conditions,WindDirDegrees,DateUTC
12:00 AM,48.9,42.6,79,29.78,-9999.0,SSE,1.2,-,N/A,,Unknown,150,2013-09-16 06:00:00
1:00 AM,48.2,42.6,81,29.75,-9999.0,NE,1.2,-,N/A,,Unknown,40,2013-09-16 07:00:00
2:00 AM,46.4,41.5,83,29.73,-9999.0,South,1.2,-,N/A,,Unknown,190,2013-09-16 08:00:00
3:00 AM,48.9,45.0,86,29.71,-9999.0,WSW,1.2,-,N/A,,Unknown,250,2013-09-16 09:00:00
4:00 AM,44.4,40.8,87,29.70,-9999.0,Calm,Calm,-,N/A,,Unknown,0,2013-09-16 10:00:00
5:00 AM,43.9,41.9,93,29.71,-9999.0,NW,2.3,-,N/A,,Unknown,320,2013-09-16 11:00:00
6:00 AM,49.6,46.9,90,29.76,-9999.0,WSW,8.1,-,0.02,,Unknown,240,2013-09-16 12:00:00
7:00 AM,53.4,48.0,82,29.76,-9999.0,WSW,5.8,-,0.02,,Unknown,240,2013-09-16 13:00:00
8:00 AM,53.1,48.0,83,29.73,-9999.0,SW,5.8,-,N/A,,Unknown,230,2013-09-16 14:00:00
9:00 AM,53.4,48.0,82,29.73,-9999.0,WSW,5.8,-,N/A,,Unknown,240,2013-09-16 15:00:00
10:00 AM,57.2,47.8,71,29.72,-9999.0,WSW,8.1,-,N/A,,Unknown,240,2013-09-16 16:00:00
11:00 AM,63.3,48.0,57,29.70,-9999.0,SW,6.9,-,N/A,,Unknown,230,2013-09-16 17:00:00
12:00 PM,66.2,43.7,44,29.68,-9999.0,WSW,11.5,18.4,N/A,,Unknown,240,2013-09-16 18:00:00
1:00 PM,59.4,43.0,55,29.73,-9999.0,WSW,5.8,-,N/A,,Unknown,250,2013-09-16 19:00:00
2:00 PM,62.4,40.5,44,29.70,-9999.0,SW,10.4,-,N/A,,Unknown,220,2013-09-16 20:00:00
3:00 PM,58.3,46.8,66,29.76,-9999.0,West,6.9,-,0.01,,Unknown,260,2013-09-16 21:00:00
4:00 PM,62.2,41.5,47,29.72,-9999.0,SW,11.5,19.6,N/A,,Unknown,230,2013-09-16 22:00:00
5:00 PM,58.6,43.5,57,29.73,-9999.0,WSW,8.1,19.6,N/A,,Unknown,240,2013-09-16 23:00:00
6:00 PM,57.9,42.4,56,29.70,-9999.0,West,4.6,-,N/A,,Unknown,260,2013-09-17 00:00:00
7:00 PM,58.6,40.8,52,29.69,-9999.0,WSW,6.9,-,N/A,,Unknown,240,2013-09-17 01:00:00
8:00 PM,55.0,40.8,59,29.70,-9999.0,West,3.5,-,N/A,,Unknown,280,2013-09-17 02:00:00
9:00 PM,55.4,39.7,56,29.69,-9999.0,West,4.6,-,N/A,,Unknown,270,2013-09-17 03:00:00
10:00 PM,56.8,39.7,53,29.67,-9999.0,West,4.6,-,N/A,,Unknown,280,2013-09-17 04:00:00
11:00 PM,56.5,40.1,54,29.68,-9999.0,WSW,6.9,-,N/A,,Unknown,240,2013-09-17 05:00:00